Regional Weather Roundup
Issued by NWS Charleston, SC

Current Version | Previous Version | Graphics & Text | Print | Product List | Glossary On
Versions: 1 2 3 4 5 6 7 8 9 10 11 12 13 14 15 16 17 18 19 20 21 22 23 24 25 26 27 28 29 30 31 32 33 34 35 36 37 38 39 40 41 42 43 44 45 46 47 48 49 50
000 ASUS42 KCHS 190625 RWRCHS REGIONAL WEATHER ROUNDUP NATIONAL WEATHER SERVICE CHARLESTON SC 200 AM EDT FRI SEP 19 2014 NOTE: "FAIR" INDICATES FEW OR NO CLOUDS BELOW 12,000 FEET WITH NO SIGNIFICANT WEATHER AND/OR OBSTRUCTIONS TO VISIBILITY. NOT ALL STATIONS ARE QUALITY CONTROLLED BY THE NATIONAL WEATHER SERVICE. USE DATA WITH CAUTION...ESPECIALLY DEWPOINT OBSERVATIONS. SCZ027-030-031-034>040-042>050-190700- ...SOUTH CAROLINA... CITY SKY/WX TMP DP RH WIND PRES REMARKS N CHARLESTON PTCLDY 73 69 87 CALM 29.99S 6HR MIN TEMP: 73; 6HR MAX TEMP: 76; WATERFRONT PRK N/A 77 N/A N/A N6 N/A FORT JOHNSON NOT AVBL MOUNT PLEASANT FAIR 72 72 100 CALM 29.99S JOHNS ISLAND CLEAR 73 73 100 CALM 29.98F PINOPOLIS N/A 75 70 83 E5 29.93S MONCKS CORNER N/A 72 72 100 CALM 30.00S SUMMERVILLE FAIR 70 70 100 CALM 30.00S BEAUFORT MCAS PTCLDY 73 71 93 CALM 29.98S 6HR MIN TEMP: 71; 6HR MAX TEMP: 74; BEAUFORT ARPT FAIR 70 70 100 CALM 29.98S FOG HILTON HEAD IS PTCLDY 72 70 94 CALM 30.00R GEORGETOWN NOT AVBL WALTERBORO PTCLDY 70 N/A N/A CALM 30.00S ORANGEBURG CLEAR 70 67 90 CALM 30.01S 6HR MIN TEMP: 70; 6HR MAX TEMP: 75; BARNWELL FAIR 70 70 100 CALM 30.01S AIKEN FAIR 68 68 100 CALM 30.05R MANNING FAIR 70 N/A N/A CALM 30.01R KINGSTREE NOT AVBL COLUMBIA PTCLDY 71 67 87 NE3 30.01R 6HR MIN TEMP: 70; 6HR MAX TEMP: 78; SUMTER PTCLDY 68 64 87 NE8 30.01R 6HR MIN TEMP: 68; 6HR MAX TEMP: 74; FLORENCE PTCLDY 69 64 84 E6 30.02S 6HR MIN TEMP: 69; 6HR MAX TEMP: 76; MYRTLE BEACH MOCLDY 79 64 61 E15 30.01S N MYRTLE BEACH CLEAR 70 64 81 NE6 30.02R 6HR MIN TEMP: 69; 6HR MAX TEMP: 77; $$ GAZ063-065-086>088-099>101-113>116-118-119-134-136>141-150-190700- ...GEORGIA... CITY SKY/WX TMP DP RH WIND PRES REMARKS SAVANNAH ARPT PTCLDY 73 68 84 NE5 29.98F 6HR MIN TEMP: 72; 6HR MAX TEMP: 80; HUNTER AAF MOCLDY 74 72 91 NE6 29.96S 6HR MIN TEMP: 74; 6HR MAX TEMP: 78; FORT STEWART PTCLDY 73 70 88 E1 29.97R 6HR MIN TEMP: 72; 6HR MAX TEMP: 78; 6HR PCP: TRACE; STATESBORO NOT AVBL SYLVANIA PTCLDY 73 72 95 CALM 30.00S CLAXTON FAIR N/A N/A N/A CALM 29.98S HAZE THOMSON PTCLDY 69 69 100 CALM 30.06S AUGUSTA-BUSH PTCLDY 66 66 100 CALM 29.99F FOG 6HR MIN TEMP: 66; 6HR MAX TEMP: 73; AUGUSTA-DANIEL PTCLDY 72 67 84 CALM 30.01S SWAINSBORO FAIR 72 72 100 CALM 30.00S VIDALIA PTCLDY 72 70 94 E5 29.99S ALMA MOCLDY 71 70 96 CALM 29.97R FOG 6HR MIN TEMP: 71; 6HR MAX TEMP: 75; WAYCROSS MOCLDY 76 75 97 CALM 29.96S JESUP FAIR 77 73 88 CALM 29.97S BRUNSWICK MOCLDY 73 72 94 CALM 29.96F SAINT SIMONS CLOUDY 78 72 81 CALM 29.95F 6HR MIN TEMP: 78; 6HR MAX TEMP: 81; $$ SCZ027-028-034-036>038-045-046-048>050-GAZ119-141-190700- ...LAKE AND SUPPLEMENTAL COASTAL OBSERVATIONS... STATION/POSITION TIME TEMP WIND PRES WAVE SWELL AIR SEA DIR/SP/G HT/PER HT/PER/DIR (UTC) (F) (DEG/KT/KT) (MB) (FT/S) (FT/S/D) UPR LAKE MARION NOT AVBL WINYAH BAY 0600 79 90/ 13 1015.0S LAKE MURRAY 0500 73 140/ 5/ 8 1015.6S ACE BASIN NERRS 0600 70 CALM 1015.0S FORT PULASKI 0600 76 70/ 17/ 18 1015.4R SAPELO ISLAND 0600 76 20/ 1 1015.0S $$ ANZ835-935-AMZ111-154-330-350-352-354-374-450-454-472-190700- ...C-MAN AND BUOY OBSERVATIONS... STATION/POSITION TIME TEMP WIND PRES WAVE SWELL AIR SEA DIR/SP/G HT/PER HT/PER/DIR (UTC) (F) (DEG/KT/KT) (MB) (FT/S) (FT/S/D) FOLLY BEACH CMAN 0600 80 80/ 8/ 9 1015.6F BUOY 41004 0600 81 83 90/ 6/ 8 1014.7S 3/ 9 3/ 9 BUOY 41008 0600 82 84 150/ 6/ 8 1014.4F 2/10 2/ 80/10 5E ST. MARYS GA 0600 84 N/A 2/11 2/100/11 FRYING PAN BUOY NOT AVBL BUOY 41025 0600 73 30/ 14/ 17 1017.4R 4/ 8 3/ 50/ 8 CAPE LOOKOUT NC 0600 76 50/ 15/ 17 1017.3F BUOY 41002 0546 79 82 80/ 12/ 14 1015.7F 4/10 3/ 90/10 BUOY 41010 0600 82 85 80/ 6/ 10 1014.0F 3/ 9 3/ 80/ 9 BUOY 41012 NOT AVBL ST AUGUSTINE FL 0600 77 250/ 3/ 4 1014.6F CAPERS NEARSHORE 0500 80 110/ 10/ 12 N/A FRIPP NEARSHORE NOT AVBL $$

USA.gov is the U.S. government's official web portal to all federal, state and local government web resources and services.